Location: Crni Vrh Observatory
(45.9460°N, 14.0712°E)
Time: 19:34:27
(UTC+02:00)

Envisat - Visible Passes

Search period start: 20 June 2018 00:00
Search period end: 30 June 2018 00:00
Orbit: 764 x 766 km, 98.2° (Epoch: 20 June)

Date Brightness Start Highest point End Pass type
(mag) Time Alt. Az. Time Alt. Az. Time Alt. Az.
21 Jun 5.7 21:46:37 10° WSW 21:49:13 14° W 21:51:51 10° WNW visible
24 Jun 5.6 21:34:34 10° SW 21:37:55 18° W 21:41:18 10° NW visible
29 Jun 5.8 21:50:19 10° WSW 21:52:32 13° W 21:54:44 10° WNW visible
